Weather History for KDCU - January, 2014

Change the Weather History Date:

Tuesday, January 28, 2014

  Actual Average Record
Temperature  
Mean Temperature 14 °F -  
Max Temperature 19 °F 49 °F 75 °F (1975)
Min Temperature 9 °F 29 °F 6 °F (1986)
Degree Days  
Heating Degree Days 51    
Moisture  
Dew Point 2 °F    
Average Humidity 54    
Maximum Humidity 70    
Minimum Humidity 41    
Precipitation  
Precipitation 0.00 in - - ()
Sea Level Pressure  
Sea Level Pressure 30.36 in    
Wind  
Wind Speed 14 mph (North)    
Max Wind Speed 18 mph    
Max Gust Speed 24 mph    
Visibility 10 miles    
Events Snow    
Averages and records for this station are not official NWS values.
T = Trace of Precipitation, MM = Missing Value Source: NWS Daily Summary

Daily Weather History Graph

Daily Weather History Graph

Search for Another Location

Airport or City:

Trip Planner

Search our weather history database for the weather conditions in past years. The results will help you decide how hot, cold, wet, or windy it might be!

Date:

Astronomy

Jan. 28, 2014 Rise Set
Actual Time 6:48 AM CST 5:13 PM CST
Civil Twilight 6:22 AM CST 5:39 PM CST
Nautical Twilight 5:51 AM CST 6:10 PM CST
Astronomical Twilight 5:21 AM CST 6:40 PM CST
Moon 4:28 AM CST (1/28) 3:04 PM CST (1/28)
Length of Visible Light 11h 17m
Length of Day
10h 24m
Waning Crescent, 7% of the Moon is Illuminated
Jan 28
Waning Crescent
Jan 30
New
Feb 6
First Quarter
Feb 14
Full
Feb 22
Last Quarter

Hourly Weather History & Observations

Time (CST) Temp. Windchill Dew Point Humidity Pressure Visibility Wind Dir Wind Speed Gust Speed Precip Events Conditions
12:53 AM 19.0 °F 4.0 °F -0.9 °F 42% 30.32 in 10.0 mi North 17.3 mph - N/A   Scattered Clouds
1:53 AM 19.0 °F 3.6 °F -0.9 °F 42% 30.32 in 10.0 mi NNE 18.4 mph - N/A   Partly Cloudy
2:53 AM 18.0 °F 3.1 °F -2.0 °F 41% 30.32 in 10.0 mi North 16.1 mph 24.2 mph N/A   Overcast
3:53 AM 19.0 °F 5.0 °F -0.9 °F 42% 30.33 in 10.0 mi North 15.0 mph - N/A   Overcast
4:53 AM 18.0 °F 3.6 °F 1.9 °F 50% 30.33 in 10.0 mi North 15.0 mph - N/A   Overcast
5:53 AM 18.0 °F - 1.0 °F 48% 30.34 in 10.0 mi North - - N/A   Overcast
6:53 AM 17.1 °F 3.0 °F -0.0 °F 47% 30.36 in 10.0 mi NNE 13.8 mph - N/A   Overcast
7:53 AM 17.1 °F 2.5 °F 1.0 °F 50% 30.36 in 10.0 mi North 15.0 mph - N/A   Overcast
8:53 AM 16.0 °F 1.1 °F 7.0 °F 68% 30.40 in 10.0 mi North 15.0 mph - 0.00 in   Mostly Cloudy
9:53 AM 17.1 °F 3.0 °F 7.0 °F 65% 30.40 in 10.0 mi North 13.8 mph - N/A   Overcast
10:53 AM 17.1 °F 3.0 °F 8.1 °F 68% 30.40 in 5.0 mi North 13.8 mph - 0.00 in Snow Light Snow
11:53 AM 17.1 °F 3.0 °F 7.0 °F 65% 30.38 in 10.0 mi North 13.8 mph - 0.00 in   Overcast
12:53 PM 18.0 °F 5.4 °F 8.1 °F 65% 30.35 in 8.0 mi North 11.5 mph - 0.00 in Snow Light Snow
1:53 PM 19.0 °F 7.5 °F 7.0 °F 59% 30.35 in 10.0 mi North 10.4 mph - 0.00 in   Overcast
2:53 PM 19.0 °F 6.8 °F 5.0 °F 54% 30.33 in 10.0 mi NNW 11.5 mph - N/A   Overcast
3:53 PM 19.0 °F 6.8 °F 1.9 °F 47% 30.34 in 10.0 mi North 11.5 mph - N/A   Overcast
4:53 PM 19.0 °F 6.8 °F 1.0 °F 46% 30.33 in 10.0 mi North 11.5 mph - N/A   Overcast
5:53 PM 19.0 °F 6.1 °F 1.0 °F 46% 30.34 in 10.0 mi North 12.7 mph - N/A   Overcast
6:53 PM 17.1 °F 5.8 °F -0.0 °F 47% 30.36 in 10.0 mi North 9.2 mph - N/A   Mostly Cloudy
7:53 PM 14.0 °F 3.9 °F 1.0 °F 56% 30.39 in 10.0 mi North 6.9 mph - N/A   Clear
8:53 PM 12.9 °F 3.8 °F -0.0 °F 56% 30.41 in 10.0 mi NW 5.8 mph - N/A   Clear
9:53 PM 12.9 °F 2.6 °F 1.0 °F 59% 30.41 in 10.0 mi NNW 6.9 mph - N/A   Clear
10:53 PM 9.0 °F 0.6 °F -0.9 °F 64% 30.42 in 10.0 mi NNW 4.6 mph - N/A   Clear
11:53 PM 9.0 °F 2.4 °F 1.0 °F 70% 30.42 in 10.0 mi NNW 3.5 mph - N/A   Clear